EHI
0 0 0 0 0 0 0 0 0 0 0 0 0 0 0 0 0 0 1 2 3 2 1 1 1 0 1 1 1 0 0 0 0 0 0 0 0 0 0 0 0 0 0
0 0 0 0 0 0 0 0 0 0 0 0 0 0 0 0 0 0 0 1 2 2 1 0 0 0 0 0 0 0 0 0 0 0 0 0 0 0 0 0 0 0 0
0 0 0 0 0 0 0 0 0 0 0 0 0 0 0 0 0 0 0 0 1 1 0 0 0 0 0 0 0 0 0 0 0 0 0 0 0 0 0 0 0 0 0
0 0 0 0 0 0 0 0 0 0 0 0 0 0 0 0 0 0 0 0 0 0 0 0 0 0 0 0 0 0 0 0 0 0 0 0 0 0 0 0 0 0 0
0 0 0 0 0 0 0 0 0 0 0 0 0 0 0 0 0 0 0 0 0 0 0 0 0 0 0 0 0 0 0 0 0 0 0 0 0 0 0 0 0 0 0
0 0 0 0 0 2 4 4 4 2 0 0 0 0 0 0 0 0 0 0 0 0 0 0 0 0 0 0 0 0 0 0 0 0 0 0 0 0 0 0 0 0 0
2 2 2 1 5 13 17 14 9 4 1 0 0 0 0 0 0 0 0 0 0 0 0 0 0 0 0 0 0 0 0 0 0 0 0 0 0 0 0 0 0 0 0
7 8 5 4 14 28 30 22 14 6 1 0 0 0 0 0 0 0 0 0 0 0 0 0 0 0 0 0 0 0 0 0 0 0 0 0 0 0 0 0 0 0 0
11 12 10 9 21 35 35 24 14 5 1 0 0 0 0 0 0 0 0 0 0 0 0 0 0 0 0 0 0 0 0 0 0 0 0 0 0 0 0 0 0 0 0
14 15 15 15 23 34 32 19 9 3 0 0 0 0 0 0 0 0 0 0 0 0 0 0 0 0 0 0 0 0 0 0 0 0 0 0 0 0 0 0 0 0 0
15 17 18 17 21 26 22 11 4 1 0 0 0 0 0 0 0 0 0 0 0 0 0 0 0 0 0 0 0 0 0 0 0 0 0 0 0 0 0 0 0 0 0
14 14 15 16 16 17 14 8 4 3 1 0 0 0 0 0 0 0 0 0 0 0 0 0 0 0 0 0 0 0 0 0 0 0 0 0 0 0 0 0 0 0 0
11 9 9 12 14 14 14 11 8 4 2 0 0 0 0 0 0 0 0 0 0 0 0 0 0 0 0 0 0 0 0 0 0 0 0 0 0 0 0 0 0 0 0
8 6 5 8 12 14 13 13 8 3 1 0 0 0 0 0 0 0 0 0 0 0 0 0 0 0 0 0 0 0 0 0 0 0 0 0 0 0 0 0 0 0 0
4 3 3 6 9 10 9 7 4 1 0 0 0 0 0 1 0 0 0 0 0 0 0 0 0 0 0 0 0 0 0 0 0 0 0 0 0 0 0 0 0 0 0
3 2 1 3 5 5 4 2 1 0 0 0 0 0 0 0 0 0 0 0 0 0 0 0 0 0 0 0 0 0 0 0 0 0 0 0 0 0 0 0 0 0 0
2 1 0 1 1 1 1 0 0 0 0 0 0 0 0 0 0 0 0 0 0 0 0 0 0 0 0 0 0 0 0 0 0 0 0 0 0 0 0 0 0 0 0
2 1 0 0 0 0 0 0 0 0 0 0 0 0 0 0 0 0 0 0 0 0 0 0 0 0 0 0 0 0 0 0 0 0 0 0 0 0 0 0 0 0 0
2 2 2 1 0 0 0 0 0 0 0 0 0 0 0 0 0 0 0 0 0 0 0 0 0 0 0 0 0 0 0 0 0 0 0 0 0 0 0 0 0 0 0
2 3 4 3 2 1 0 0 0 0 0 0 0 0 0 0 0 0 0 0 0 0 0 0 0 0 0 0 0 0 0 0 0 0 0 0 0 0 0 0 0 0 0
1 2 4 5 4 2 0 0 0 0 0 0 0 0 0 0 0 0 0 0 0 0 0 0 0 0 0 0 0 0 0 0 0 0 0 0 0 0 0 0 0 0 0
4 3 2 4 4 2 0 0 0 0 0 0 0 0 0 0 0 0 0 0 0 0 0 0 0 0 0 0 0 0 0 0 0 0 0 0 0 0 0 0 0 0 0
10 5 2 2 3 1 0 0 0 0 0 0 0 0 0 0 0 0 0 0 0 0 0 0 0 0 0 0 0 0 0 0 0 0 0 0 0 0 0 0 0 0 0
9 5 2 2 3 2 0 0 0 0 0 0 0 0 0 0 0 0 0 0 0 0 0 0 0 0 0 0 0 0 0 0 0 0 0 0 0 0 0 0 0 0 0
6 3 1 1 3 2 1 0 0 0 0 0 0 0 0 0 0 0 0 0 0 0 0 0 0 0 0 0 0 0 0 0 0 0 0 0 0 0 0 0 0 0 0
3 2 1 1 2 2 1 0 0 0 0 0 0 0 0 0 0 0 0 0 0 0 0 0 0 0 0 0 0 0 0 0 0 0 0 0 0 0 0 0 0 0 0
Wind_Speed
3 5 4 4 4 3 3 2 1 1 3 6 6 6 7 7 6 5 4 11 11 11 11 11 11 11 11 10 9 7 6 6 5 5 5 5 5 5 5 6 6 7 8
3 4 3 4 3 3 3 2 3 1 4 5 4 3 6 7 7 6 5 8 13 13 13 13 13 13 12 11 10 9 8 7 6 5 5 5 4 4 4 5 5 6 7
4 4 3 4 3 3 3 2 3 3 4 3 2 3 4 4 7 7 6 5 7 12 14 14 15 14 14 12 11 10 9 8 7 6 5 5 4 4 4 4 4 5 7
6 5 3 4 4 3 3 3 3 2 3 2 2 3 3 2 4 7 6 5 5 6 10 14 15 15 15 14 13 11 10 9 7 6 5 5 4 3 3 3 3 4 6
6 5 4 4 5 3 3 4 3 2 3 3 3 1 2 2 1 3 6 6 5 6 5 9 14 14 14 14 14 13 11 9 8 7 6 5 4 3 3 3 3 4 5
5 4 4 4 4 4 3 3 4 3 3 2 2 2 2 1 3 4 4 4 4 6 6 6 5 8 13 13 13 13 12 11 9 9 7 6 5 4 3 3 3 3 4
5 5 5 5 3 4 4 4 3 4 2 2 3 2 1 1 4 2 2 4 4 4 4 4 4 5 5 12 12 13 12 12 11 10 9 8 6 5 3 3 3 3 4
5 4 6 4 2 4 5 4 4 3 1 1 3 2 1 1 1 2 2 3 4 3 4 5 4 5 5 4 7 11 12 12 11 11 10 9 7 5 4 3 3 3 3
6 5 5 5 4 4 4 4 4 5 2 1 2 3 3 3 2 1 4 3 4 3 2 3 5 6 7 4 4 7 10 10 11 11 11 10 8 6 4 3 3 3 3
6 5 5 5 5 5 6 5 5 4 4 3 2 3 3 4 4 3 2 3 5 4 3 1 2 5 7 5 6 7 9 9 10 11 10 10 9 7 5 4 3 3 2
6 6 6 6 5 5 6 6 5 6 5 4 4 3 4 2 3 4 3 3 3 3 4 4 3 4 5 6 4 5 8 8 9 10 10 10 10 8 7 5 5 4 3
3 6 6 6 5 5 6 7 7 7 7 6 5 5 4 2 2 2 3 4 4 4 4 4 4 4 4 5 7 8 7 7 8 9 10 10 11 10 9 8 7 7 6
3 4 5 5 5 5 6 6 7 7 8 8 7 5 4 3 2 1 2 3 3 3 4 3 4 4 4 5 5 9 7 6 7 8 9 10 11 11 11 11 11 10 10
2 3 4 4 5 5 5 5 5 6 6 7 7 6 4 3 2 1 1 3 2 2 3 4 4 5 4 6 8 9 6 7 6 7 7 8 9 10 11 12 12 12 12
2 3 3 3 3 4 4 5 4 5 5 6 6 5 4 3 2 2 1 2 4 3 4 3 3 5 4 5 9 6 6 8 8 7 6 7 7 8 9 9 10 10 10
4 4 3 4 4 4 4 4 3 4 5 5 5 5 4 2 2 2 1 0 2 3 3 3 3 5 6 7 9 4 7 12 9 8 6 6 5 6 6 7 7 8 8
4 5 5 4 4 4 4 4 3 3 4 4 4 5 4 3 2 1 1 1 1 1 3 3 3 4 6 6 4 5 6 5 5 8 7 6 4 4 5 5 6 6 7
5 5 6 6 6 5 5 5 5 4 4 4 5 5 5 3 2 1 1 1 1 2 2 3 2 3 5 7 7 6 6 7 6 9 9 7 5 4 3 4 4 5 5
5 5 6 6 6 6 6 6 5 5 5 5 4 5 5 5 3 2 1 1 2 2 2 2 3 2 3 6 7 5 5 3 8 8 9 8 7 5 4 4 3 3 4
5 6 7 7 7 7 7 7 6 6 6 5 5 5 5 5 5 4 3 3 2 3 3 2 3 2 2 3 6 5 4 3 4 6 7 8 8 7 6 5 5 4 4
4 5 6 7 7 7 7 8 7 8 7 6 6 6 6 8 8 6 4 4 4 3 3 3 4 3 3 3 5 5 5 4 4 4 4 4 5 4 5 6 7 7 5
3 3 4 5 7 6 9 11 7 6 7 8 8 7 8 9 12 13 12 10 7 6 4 4 4 5 7 6 4 4 4 4 4 5 5 5 5 5 5 5 9 10 8
4 4 4 4 5 6 11 11 9 3 3 4 6 7 7 8 11 8 11 13 12 14 12 7 6 7 6 7 8 7 6 6 5 5 5 5 5 6 5 8 16 13 11
4 4 5 4 4 8 12 11 9 4 4 4 5 5 6 6 8 8 7 7 7 8 10 9 8 7 6 6 10 10 9 6 4 3 5 4 4 4 3 5 16 15 12
4 4 4 4 4 6 11 11 9 4 4 5 5 4 3 3 4 7 5 5 5 5 5 8 8 5 3 4 5 6 6 5 4 3 4 3 4 4 3 4 8 14 12
3 3 3 4 4 5 10 12 10 3 3 3 2 1 2 2 3 4 3 4 5 4 3 3 4 5 5 4 6 6 7 6 4 4 5 4 3 4 3 3 5 6 7
Wind_Direction
172 161 174 170 195 172 176 220 194 48 47 42 53 86 96 92 90 81 74 78 80 81 85 86 83 81 80 79 81 87 97 100 101 99 94 86 76 68 58 45 36 26 20
187 161 178 165 201 167 177 179 136 113 71 59 42 63 105 112 112 111 101 82 80 81 83 85 83 80 80 79 78 78 81 87 90 92 90 88 84 78 67 54 43 31 24
194 164 179 164 203 183 172 154 124 101 106 122 101 73 67 111 134 132 124 110 87 78 82 83 81 78 76 75 76 75 74 76 79 82 83 86 89 88 81 69 54 37 29
199 173 179 170 195 178 153 118 120 110 110 121 97 79 81 43 112 141 139 133 119 95 82 86 82 77 73 70 69 71 71 72 73 74 74 77 85 92 92 84 66 46 36
204 174 177 181 186 165 147 151 152 136 132 105 91 52 87 90 357 109 124 122 122 123 114 96 89 82 75 69 65 64 67 69 69 70 70 72 80 94 97 95 79 56 43
209 178 160 204 186 150 148 153 142 120 115 132 142 98 61 115 73 44 75 101 113 126 138 134 111 88 80 71 64 60 61 64 66 65 66 67 72 85 95 102 92 74 57
213 183 166 201 190 150 152 155 129 124 123 143 88 68 354 338 105 143 122 105 103 123 135 132 133 126 94 72 61 58 55 59 63 62 62 63 62 67 73 93 97 91 76
220 195 174 177 165 136 145 145 121 131 152 154 127 134 193 319 313 171 114 140 162 164 147 140 134 124 113 97 67 60 52 52 58 59 58 58 58 60 65 81 97 99 91
216 201 193 176 169 149 152 152 142 145 168 228 159 157 174 196 201 199 188 187 140 140 166 150 149 128 111 103 88 57 57 50 53 54 53 51 52 55 64 78 94 108 105
213 204 200 188 176 160 161 171 163 154 157 205 256 238 213 169 162 184 211 182 161 173 147 118 107 111 117 112 103 85 70 57 54 51 48 46 47 53 64 76 84 103 115
210 203 202 198 190 170 171 173 169 166 169 184 218 254 264 229 202 147 182 193 172 176 163 170 141 117 124 129 119 100 81 68 60 53 48 44 45 51 61 74 77 84 90
206 210 206 201 197 183 181 181 180 179 183 187 205 229 239 228 233 158 167 180 181 193 165 153 146 136 133 123 125 120 100 82 72 62 53 48 47 49 54 67 72 72 68
197 212 206 203 199 195 189 184 184 186 186 189 200 218 229 238 245 218 158 173 176 183 155 157 169 153 151 131 138 142 125 106 88 74 65 57 54 55 56 60 65 66 63
173 187 196 197 193 190 190 189 188 190 188 188 196 206 217 226 255 260 167 148 144 182 182 186 168 163 167 150 162 161 145 136 114 93 78 68 64 61 61 61 60 61 61
157 157 159 164 167 173 181 183 191 191 186 189 187 195 208 206 235 267 238 150 150 173 215 206 159 176 160 131 165 170 156 156 136 118 99 82 74 70 69 66 63 59 58
122 132 142 146 154 161 175 178 174 179 182 187 179 182 186 187 208 253 273 217 148 162 202 211 187 169 158 151 183 185 151 157 148 138 124 106 91 83 78 72 64 55 50
150 158 153 153 155 158 162 160 161 167 182 185 172 165 166 166 200 227 271 290 247 175 204 230 201 162 152 155 150 144 157 162 159 157 149 137 120 103 92 83 73 61 54
167 167 158 165 168 167 168 166 166 164 164 166 160 153 152 155 178 202 250 262 262 244 212 222 209 175 170 165 159 177 176 177 157 171 167 163 155 143 123 108 91 78 71
176 172 165 169 174 174 175 175 174 171 170 165 162 160 159 159 172 184 209 241 256 269 248 220 217 201 191 170 160 184 189 167 162 169 175 178 177 173 164 146 124 110 99
188 181 176 176 178 178 179 177 178 178 178 177 177 178 178 178 184 184 203 223 236 252 257 249 225 194 208 181 163 174 190 186 165 170 179 177 186 189 190 180 167 152 137
209 190 182 178 176 179 184 181 184 185 188 190 193 199 202 202 207 206 209 213 218 225 235 237 231 193 193 191 191 178 181 178 199 173 159 173 174 190 200 202 190 176 163
222 226 198 182 178 184 173 174 182 191 195 198 201 206 210 211 219 223 227 228 223 224 225 229 231 211 203 200 196 183 170 168 209 195 166 189 179 198 200 197 189 179 175
217 233 232 200 180 162 165 170 183 197 209 210 205 205 214 214 210 215 226 234 239 240 232 228 234 229 211 197 193 197 194 193 203 187 162 193 188 203 198 188 179 179 178
223 226 241 225 179 171 173 174 176 198 230 240 233 223 214 213 202 204 213 219 229 236 231 226 230 233 222 202 194 199 200 200 207 169 155 183 183 191 158 157 177 179 180
251 227 226 226 201 171 175 172 167 194 228 246 246 237 227 232 195 190 200 219 237 249 235 218 219 212 197 210 203 179 181 182 190 188 187 184 172 168 158 167 188 186 183
286 262 238 218 200 180 180 179 179 193 225 248 263 253 207 190 154 172 205 221 230 238 219 189 204 203 201 203 199 185 179 181 182 184 187 185 170 147 181 182 175 184 187